BAW32B VHHH-EGLL

Flight info

Callsign BAW32B
Flight time N/A
Altitude 34100
Route BEKOL A461 SHL W22 TEPID W24 OSNOV G586 QP B330 ELKAL W179 IGNAK/K0933S1010 W179 WFX/K0924S1040 W179 OMBON W195 VIDEK/K0930S1010 W195 LAXAL/K0917S1040 W195 IDOPA W197 ANDIM B215 IBANO G470 AKLAS W192 FKG A368 SARIN/K0909F340 N161 AMASO/K0902F360 N161 GASBI/N0498F360 N161 LEYLA T916 MATAL DCT REBLO UR317 EKTES/N0495F380 UR317 TBN UM11 CRM UL746 ODERO DCT OPT DCT TEGRI DCT GAZDA DCT ARSIN DCT PEROL DCT RENKA DCT INBED DCT BOMBI DCT DENUT L608 LOGAN
Aircraft A35K/H-SDE2E3GHIJ3J4J5LM1ORWXY/LB1D1

Departure

Time 2026-05-06 03:57
Airport Hong Kong International Airport (VHHH)

Arrival

Time N/A
Airport London Heathrow Airport (EGLL)
Time Latitude Longitude Altitude Speed Heading
2026-05-06 03:46 22.31555 113.92612 38 ft 8 kts 296°
2026-05-06 03:46 22.31580 113.92559 38 ft 8 kts 296°
2026-05-06 03:46 22.31608 113.92498 38 ft 11 kts 297°
2026-05-06 03:47 22.31643 113.92405 38 ft 15 kts 278°
2026-05-06 03:47 22.31615 113.92281 38 ft 18 kts 251°
2026-05-06 03:47 22.31575 113.92154 38 ft 18 kts 251°
2026-05-06 03:47 22.31536 113.92077 38 ft 7 kts 212°
2026-05-06 03:48 22.31473 113.92078 38 ft 12 kts 166°
2026-05-06 03:48 22.31370 113.92116 38 ft 19 kts 161°
2026-05-06 03:48 22.31227 113.92168 38 ft 24 kts 161°
2026-05-06 03:48 22.31049 113.92234 38 ft 29 kts 161°
2026-05-06 03:49 22.30841 113.92312 38 ft 34 kts 162°
2026-05-06 03:49 22.30697 113.92275 38 ft 21 kts 248°
2026-05-06 03:49 22.30644 113.92109 38 ft 28 kts 251°
2026-05-06 03:49 22.30577 113.91904 38 ft 29 kts 250°
2026-05-06 03:50 22.30514 113.91704 38 ft 28 kts 251°
2026-05-06 03:50 22.30447 113.91502 38 ft 29 kts 250°
2026-05-06 03:50 22.30380 113.91294 38 ft 29 kts 251°
2026-05-06 03:50 22.30312 113.91082 38 ft 31 kts 251°
2026-05-06 03:51 22.30297 113.91034 38 ft 32 kts 251°
2026-05-06 03:51 22.30259 113.90916 38 ft 32 kts 251°
2026-05-06 03:51 22.30188 113.90696 38 ft 31 kts 251°
2026-05-06 03:51 22.30117 113.90475 38 ft 31 kts 251°
2026-05-06 03:52 22.30047 113.90257 38 ft 32 kts 251°
2026-05-06 03:52 22.29975 113.90030 38 ft 32 kts 251°
2026-05-06 03:52 22.29903 113.89807 38 ft 31 kts 250°
2026-05-06 03:52 22.29869 113.89746 38 ft 0 kts 215°
2026-05-06 03:53 22.29851 113.89737 38 ft 7 kts 201°
2026-05-06 03:53 22.29810 113.89739 38 ft 6 kts 171°
2026-05-06 03:53 22.29755 113.89758 38 ft 13 kts 161°
2026-05-06 03:54 22.29670 113.89806 35 ft 15 kts 133°
2026-05-06 03:54 22.29655 113.89913 36 ft 15 kts 79°
2026-05-06 03:54 22.29688 113.90018 36 ft 15 kts 70°
2026-05-06 03:54 22.29770 113.90272 36 ft 66 kts 70°
2026-05-06 03:55 22.29976 113.90923 37 ft 124 kts 71°
2026-05-06 03:55 22.30323 113.91996 41 ft 175 kts 73°
2026-05-06 03:55 22.30350 113.92088 44 ft 178 kts 73°
2026-05-06 03:56 22.30410 113.92297 95 ft 181 kts 73°
2026-05-06 03:56 22.30412 113.92304 97 ft 181 kts 73°
2026-05-06 03:56 22.30457 113.92462 157 ft 181 kts 73°
2026-05-06 03:56 22.30541 113.92756 327 ft 179 kts 74°
2026-05-06 03:57 22.30889 113.93993 1283 ft 168 kts 75°
2026-05-06 03:57 22.31294 113.95253 1655 ft 185 kts 72°
2026-05-06 03:57 22.31761 113.96607 1884 ft 200 kts 71°
2026-05-06 03:57 22.32256 113.98075 2104 ft 215 kts 71°
2026-05-06 03:58 22.32767 113.99623 2505 ft 220 kts 72°
2026-05-06 03:58 22.33256 114.01204 2941 ft 225 kts 76°
2026-05-06 03:58 22.33316 114.02890 3432 ft 227 kts 103°
2026-05-06 03:58 22.32859 114.04495 3981 ft 228 kts 111°
2026-05-06 03:59 22.32320 114.06119 4470 ft 232 kts 111°
2026-05-06 03:59 22.31774 114.07772 4895 ft 236 kts 111°
2026-05-06 03:59 22.31224 114.09455 5279 ft 240 kts 112°
2026-05-06 03:59 22.30668 114.11165 5734 ft 242 kts 112°
2026-05-06 04:00 22.30106 114.12896 6170 ft 245 kts 112°
2026-05-06 04:00 22.29542 114.14636 6586 ft 247 kts 112°
2026-05-06 04:00 22.28969 114.16404 6955 ft 251 kts 112°
2026-05-06 04:00 22.28388 114.18200 7347 ft 255 kts 112°
2026-05-06 04:01 22.27799 114.20017 7760 ft 259 kts 112°
2026-05-06 04:01 22.27185 114.21907 7966 ft 275 kts 111°
2026-05-06 04:01 22.26541 114.23890 8290 ft 282 kts 111°
2026-05-06 04:01 22.25899 114.25919 8718 ft 288 kts 108°
2026-05-06 04:02 22.25700 114.28081 9116 ft 294 kts 79°
2026-05-06 04:02 22.26514 114.30088 9479 ft 297 kts 48°
2026-05-06 04:02 22.28118 114.31439 9812 ft 299 kts 25°
2026-05-06 04:02 22.29987 114.32460 10185 ft 305 kts 23°
2026-05-06 04:03 22.31932 114.33498 10391 ft 318 kts 24°
2026-05-06 04:03 22.33945 114.34603 10578 ft 332 kts 25°
2026-05-06 04:03 22.36046 114.35769 10802 ft 344 kts 23°
2026-05-06 04:03 22.38329 114.36649 10976 ft 353 kts
2026-05-06 04:04 22.40776 114.36762 11167 ft 360 kts 348°
2026-05-06 04:04 22.43135 114.35860 11325 ft 365 kts 326°
2026-05-06 04:04 22.45014 114.34008 11502 ft 371 kts 304°
2026-05-06 04:04 22.46189 114.31498 11702 ft 378 kts 290°
2026-05-06 04:05 22.47183 114.28847 12035 ft 383 kts 293°
2026-05-06 04:05 22.48392 114.26258 12475 ft 386 kts 298°
2026-05-06 04:05 22.49602 114.23666 12925 ft 388 kts 292°
2026-05-06 04:05 22.50567 114.20929 13343 ft 390 kts 289°
2026-05-06 04:06 22.51545 114.18223 13790 ft 392 kts 294°
2026-05-06 04:06 22.52932 114.15622 14154 ft 396 kts 305°
2026-05-06 04:06 22.54767 114.13443 14508 ft 401 kts 317°
2026-05-06 04:06 22.57074 114.11717 14856 ft 405 kts 328°
2026-05-06 04:07 22.59581 114.10286 15214 ft 409 kts 332°
2026-05-06 04:07 22.62180 114.08991 15561 ft 412 kts 334°
2026-05-06 04:07 22.64816 114.07738 15922 ft 415 kts 334°
2026-05-06 04:07 22.67464 114.06475 16294 ft 417 kts 334°
2026-05-06 04:08 22.70114 114.05183 16643 ft 419 kts 333°
2026-05-06 04:08 22.72767 114.03859 16985 ft 421 kts 333°
2026-05-06 04:08 22.75427 114.02508 17324 ft 424 kts 332°
2026-05-06 04:08 22.78106 114.01132 17660 ft 426 kts 332°
2026-05-06 04:09 22.80786 113.99750 18013 ft 428 kts 332°
2026-05-06 04:09 22.83486 113.98354 18370 ft 429 kts 332°
2026-05-06 04:09 22.86187 113.96956 18633 ft 432 kts 332°
2026-05-06 04:09 22.88912 113.95548 18881 ft 435 kts 332°
2026-05-06 04:10 22.91652 113.94136 19165 ft 437 kts 332°
2026-05-06 04:10 22.94406 113.92709 19441 ft 440 kts 332°
2026-05-06 04:10 22.97172 113.91268 19712 ft 442 kts 332°
2026-05-06 04:10 22.99951 113.89817 19972 ft 444 kts 332°
2026-05-06 04:11 23.02706 113.88378 20228 ft 447 kts 332°
2026-05-06 04:11 23.05514 113.86909 20488 ft 449 kts 332°
2026-05-06 04:11 23.08236 113.85241 20761 ft 449 kts 324°
2026-05-06 04:11 23.10735 113.83203 21015 ft 450 kts 318°
2026-05-06 04:12 23.13098 113.80961 21281 ft 452 kts 316°
2026-05-06 04:12 23.15415 113.78614 21471 ft 456 kts 314°
2026-05-06 04:12 23.17709 113.76210 21730 ft 458 kts 314°
2026-05-06 04:12 23.19995 113.73783 22030 ft 459 kts 314°
2026-05-06 04:13 23.20736 113.72995 22179 ft 459 kts 314°
2026-05-06 04:13 23.22279 113.71355 22405 ft 459 kts 314°